When you browse on this site, cookies collect data to enhance your experience and personalize the content and advertising you see.
Visit our Privacy Policy to learn more. By continuing to use the site, you agree to this use of cookies and data.
  • En España
  • Lista de países
  • Para 7 días
  • Temperatura del agua
  • Mapa Satelital
  • El tiempo en el mapa
  • Informadores
  • user-avatar
    Iniciar sesión

    Tiempo cada hora Linz

    Hoy, 19 Abril, Viernes

    Tiempo Temperatura Precipitaciones Viento Presión Humedad
    00:00 +8°C° 0 mm 3 mps 742 mmHg 76%
    01:00 +7°C° 0 mm 2 mps 743 mmHg 79%
    02:00 +7°C° 0 mm 2 mps 743 mmHg 80%
    03:00 +6°C° 0 mm 2 mps 743 mmHg 82%
    04:00 +6°C° 0 mm 2 mps 743 mmHg 83%
    05:00 +7°C° 0 mm 2 mps 743 mmHg 79%
    06:00 +8°C° 0 mm 2 mps 743 mmHg 75%
    07:00 +9°C° 0 mm 2 mps 743 mmHg 71%
    08:00 +11°C° 0 mm 3 mps 743 mmHg 64%
    09:00 +14°C° 0 mm 3 mps 743 mmHg 57%
    10:00 +17°C° 0 mm 4 mps 743 mmHg 51%
    11:00 +18°C° 0 mm 4 mps 743 mmHg 48%
    12:00 +20°C° 0 mm 4 mps 743 mmHg 45%
    13:00 +21°C° 0 mm 5 mps 743 mmHg 43%
    14:00 +21°C° 0 mm 5 mps 742 mmHg 45%
    15:00 +20°C° 0 mm 5 mps 742 mmHg 47%
    16:00 +20°C° 0 mm 5 mps 742 mmHg 49%
    17:00 +17°C° 0 mm 5 mps 742 mmHg 54%
    18:00 +15°C° 0 mm 4 mps 742 mmHg 60%
    19:00 +13°C° 0 mm 4 mps 742 mmHg 66%
    20:00 +13°C° 0 mm 4 mps 742 mmHg 67%
    21:00 +12°C° 0 mm 3 mps 743 mmHg 68%
    22:00 +11°C° 0 mm 3 mps 743 mmHg 69%
    23:00 +10°C° 0 mm 3 mps 743 mmHg 70%

    Mañana, 20 Abril, Sábado

    Tiempo Temperatura Precipitaciones Viento Presión Humedad
    00:00 +10°C° 0 mm 3 mps 743 mmHg 70%
    01:00 +9°C° 0 mm 2 mps 743 mmHg 71%
    02:00 +8°C° 0 mm 2 mps 743 mmHg 72%
    03:00 +8°C° 0 mm 2 mps 743 mmHg 74%
    04:00 +7°C° 0 mm 2 mps 743 mmHg 75%
    05:00 +8°C° 0 mm 2 mps 743 mmHg 73%
    06:00 +9°C° 0 mm 2 mps 743 mmHg 71%
    07:00 +10°C° 0 mm 2 mps 743 mmHg 69%
    08:00 +13°C° 0 mm 2 mps 742 mmHg 63%
    09:00 +14°C° 0 mm 3 mps 742 mmHg 57%
    10:00 +18°C° 0 mm 3 mps 742 mmHg 51%
    11:00 +19°C° 0 mm 3 mps 742 mmHg 48%
    12:00 +20°C° 0 mm 4 mps 741 mmHg 45%
    13:00 +21°C° 0 mm 4 mps 741 mmHg 41%
    14:00 +21°C° 0 mm 4 mps 741 mmHg 43%
    15:00 +20°C° 0 mm 4 mps 740 mmHg 44%
    16:00 +20°C° 0 mm 5 mps 740 mmHg 46%
    17:00 +18°C° 0 mm 4 mps 740 mmHg 52%
    18:00 +16°C° 0 mm 3 mps 739 mmHg 58%
    19:00 +13°C° 0 mm 3 mps 739 mmHg 64%
    20:00 +12°C° 0 mm 3 mps 739 mmHg 64%
    21:00 +12°C° 0 mm 2 mps 739 mmHg 64%
    22:00 +10°C° 0 mm 2 mps 740 mmHg 64%
    23:00 +9°C° 0 mm 2 mps 739 mmHg 66%

    Pasado mañana, 21 Abril, Domingo

    Tiempo Temperatura Precipitaciones Viento Presión Humedad
    00:00 +9°C° 0 mm 2 mps 739 mmHg 68%
    01:00 +9°C° 0 mm 1 mps 739 mmHg 70%
    02:00 +9°C° 0 mm 1 mps 739 mmHg 71%
    03:00 +8°C° 0 mm 1 mps 738 mmHg 72%
    04:00 +8°C° 0 mm 1 mps 738 mmHg 73%
    05:00 +9°C° 0 mm 1 mps 738 mmHg 71%
    06:00 +10°C° 0 mm 1 mps 738 mmHg 69%
    07:00 +11°C° 0 mm 1 mps 738 mmHg 67%
    08:00 +13°C° 0 mm 2 mps 737 mmHg 62%
    09:00 +15°C° 0 mm 2 mps 737 mmHg 56%
    10:00 +17°C° 0 mm 3 mps 737 mmHg 51%
    11:00 +18°C° 0 mm 3 mps 736 mmHg 47%
    12:00 +19°C° 0 mm 4 mps 736 mmHg 44%
    13:00 +20°C° 0 mm 4 mps 735 mmHg 41%
    14:00 +20°C° 0 mm 4 mps 735 mmHg 43%
    15:00 +20°C° 0 mm 5 mps 734 mmHg 44%
    16:00 +20°C° 0 mm 5 mps 734 mmHg 46%
    17:00 +17°C° 0 mm 5 mps 734 mmHg 51%
    18:00 +15°C° 0 mm 4 mps 734 mmHg 57%
    19:00 +13°C° 0 mm 4 mps 733 mmHg 62%
    20:00 +13°C° 0 mm 4 mps 734 mmHg 63%
    21:00 +12°C° 0 mm 4 mps 734 mmHg 64%
    22:00 +11°C° 0 mm 3 mps 734 mmHg 65%
    23:00 +10°C° 0 mm 3 mps 734 mmHg 68%

    22 Abril, Lunes

    Tiempo Temperatura Precipitaciones Viento Presión Humedad
    00:00 +10°C° 0 mm 3 mps 733 mmHg 70%
    01:00 +9°C° 0 mm 2 mps 733 mmHg 73%
    02:00 +8°C° 0 mm 2 mps 733 mmHg 75%
    03:00 +8°C° 0 mm 2 mps 732 mmHg 77%
    04:00 +8°C° 0 mm 1 mps 732 mmHg 79%
    05:00 +9°C° 0 mm 1 mps 732 mmHg 77%
    06:00 +10°C° 0 mm 1 mps 731 mmHg 74%
    07:00 +11°C° 0 mm 1 mps 731 mmHg 71%
    08:00 +13°C° 0 mm 1 mps 731 mmHg 64%
    09:00 +16°C° 0 mm 2 mps 730 mmHg 56%
    10:00 +18°C° 0 mm 2 mps 730 mmHg 48%
    11:00 +19°C° 0 mm 2 mps 729 mmHg 45%
    12:00 +20°C° 0 mm 2 mps 729 mmHg 42%
    13:00 +21°C° 0 mm 3 mps 728 mmHg 39%
    14:00 +21°C° 0 mm 3 mps 728 mmHg 39%
    15:00 +22°C° 0 mm 3 mps 727 mmHg 40%
    16:00 +22°C° 0 mm 3 mps 727 mmHg 40%
    17:00 +20°C° 0 mm 3 mps 726 mmHg 47%
    18:00 +18°C° 0 mm 3 mps 726 mmHg 54%
    19:00 +16°C° 0 mm 3 mps 726 mmHg 61%
    20:00 +14°C° 0 mm 3 mps 726 mmHg 64%
    21:00 +13°C° 0 mm 3 mps 726 mmHg 66%
    22:00 +11°C° 0 mm 3 mps 726 mmHg 68%
    23:00 +12°C° 0 mm 2 mps 726 mmHg 71%

    23 Abril, Martes

    Tiempo Temperatura Precipitaciones Viento Presión Humedad
    00:00 +10°C° 0 mm 2 mps 725 mmHg 74%
    01:00 +10°C° 0 mm 2 mps 725 mmHg 77%
    02:00 +10°C° 0 mm 2 mps 725 mmHg 78%
    03:00 +9°C° 0 mm 2 mps 725 mmHg 79%
    04:00 +9°C° 0 mm 2 mps 725 mmHg 80%
    05:00 +10°C° 0 mm 2 mps 725 mmHg 78%
    06:00 +12°C° 0 mm 2 mps 725 mmHg 77%
    07:00 +13°C° 0 mm 2 mps 725 mmHg 76%
    08:00 +14°C° 0 mm 3 mps 725 mmHg 70%
    09:00 +17°C° 0 mm 4 mps 725 mmHg 63%
    10:00 +19°C° 0 mm 5 mps 725 mmHg 57%
    11:00 +20°C° 0 mm 5 mps 725 mmHg 53%
    12:00 +21°C° 0 mm 6 mps 725 mmHg 49%
    13:00 +22°C° 0 mm 6 mps 725 mmHg 46%
    14:00 +22°C° 0 mm 6 mps 725 mmHg 49%
    15:00 +21°C° 0 mm 6 mps 725 mmHg 52%
    16:00 +20°C° 0 mm 6 mps 725 mmHg 55%
    17:00 +17°C° 0 mm 6 mps 725 mmHg 60%
    18:00 +16°C° 0 mm 5 mps 725 mmHg 64%
    19:00 +15°C° 0 mm 5 mps 725 mmHg 69%
    20:00 +13°C° 0 mm 4 mps 725 mmHg 75%
    21:00 +12°C° 0 mm 3 mps 726 mmHg 80%
    22:00 +12°C° 0 mm 2 mps 726 mmHg 86%
    23:00 +12°C° 0 mm 2 mps 727 mmHg 87%

    24 Abril, Miércoles

    Tiempo Temperatura Precipitaciones Viento Presión Humedad
    00:00 +12°C° 0 mm 2 mps 727 mmHg 88%
    01:00 +11°C° 0 mm 1 mps 727 mmHg 89%
    02:00 +11°C° 0 mm 1 mps 727 mmHg 89%
    03:00 +11°C° 0 mm 1 mps 728 mmHg 88%
    04:00 +11°C° 0 mm 1 mps 728 mmHg 88%
    05:00 +12°C° 0 mm 1 mps 729 mmHg 86%
    06:00 +12°C° 0 mm 0 mps 729 mmHg 83%
    07:00 +13°C° 0 mm 0 mps 730 mmHg 81%
    08:00 +14°C° 0.1 mm 0 mps 730 mmHg 78%
    09:00 +16°C° 0.1 mm 1 mps 730 mmHg 75%
    10:00 +18°C° 0.1 mm 1 mps 731 mmHg 72%
    11:00 +20°C° 0 mm 1 mps 731 mmHg 65%
    12:00 +22°C° 0 mm 1 mps 731 mmHg 58%
    13:00 +24°C° 0 mm 2 mps 731 mmHg 51%
    14:00 +24°C° 0 mm 2 mps 731 mmHg 52%
    15:00 +24°C° 0 mm 3 mps 731 mmHg 53%
    16:00 +24°C° 0 mm 3 mps 731 mmHg 54%
    17:00 +21°C° 0 mm 3 mps 731 mmHg 64%
    18:00 +19°C° 0 mm 3 mps 732 mmHg 74%
    19:00 +17°C° 0 mm 3 mps 732 mmHg 83%
    20:00 +16°C° 0 mm 2 mps 732 mmHg 87%
    21:00 +15°C° 0 mm 2 mps 733 mmHg 90%
    22:00 +14°C° 0 mm 2 mps 733 mmHg 93%
    23:00 +13°C° 0 mm 1 mps 733 mmHg 93%
    Mostrar más